Hlavní strana
METAR-TAF:

METAR-TAF

Letiště :

Calhoun, Georgie, Spojené státy americké

zeměpisná šířka: 34-27-20N, zeměpisná délka: 084-56-21W, výška: 198 m

Aktuální stav počasí

Zpráva byla vytvořena před 20 minutami, v 02:55 UTC
Bezvětří
Teplota 8°C
Vlhkost vzduchu 100%
Tlak 1021 hPa
Viditelnost: 8.0 km
Jasno
kouřmo

METAR: KCZL 190255Z AUTO 00000KT 5SM BR CLR 08/08 A3014 RMK AO2

Čas: 22:15 (03:15 UTC)


TAF: chybějící

Stav a předpovědi počasí z více než 4 000 letišť (zprávy METAR a TAF).

Červené a žluté tečky na mapě představují dostupné meteorologické stanice.

Když kurzor umístíte na tečku, zobrazí se název stanice.

Pak kliknutím zobrazíte stav a předpověď počasí.

Chcete-li změnit mapu, kliknutím na zelené tlačítko se znaménkem +mapu přiblížíte, kliknutím na zelené tlačítko se znaménkem – mapu oddálíte a kliknutím na zelené šipky přejdete na sousední mapy.


METAR-TAF: